GFSMW_prec_cloud_132.txt.gz
Cloud_Cover
10 73 3 0 2 82 100 1 3 5 0 0 29 23 12 19 2 5 6 100 4 0 0 4 5 60 2 0 5 5 41 58 45 99 100 100 100 97 100 84 100 100 100
15 67 31 0 0 21 100 100 5 5 2 0 1 6 0 4 0 4 16 5 0 0 37 17 5 4 0 0 5 10 100 99 78 92 100 99 83 99 100 100 100 100 100
78 27 42 9 83 14 100 100 17 5 4 0 0 0 0 66 38 1 0 0 76 4 5 0 2 22 5 29 5 85 88 50 100 100 88 99 100 84 100 100 100 100 100
97 10 100 0 7 0 81 100 51 5 4 0 0 1 8 0 0 0 0 99 100 6 0 6 96 100 100 100 69 98 100 100 100 100 45 100 98 81 85 98 100 100 100
81 52 89 2 0 0 10 100 100 10 0 0 0 83 0 4 0 4 30 100 100 100 100 83 80 86 99 60 100 81 87 86 73 95 57 96 22 100 72 5 20 84 92
100 86 79 0 0 29 1 78 100 100 2 0 0 0 0 0 0 10 3 4 8 75 96 41 100 60 5 21 38 100 85 100 100 67 100 76 52 83 9 4 73 5 10
96 95 70 63 0 0 4 6 98 100 75 0 0 0 0 0 0 2 5 2 2 4 25 8 7 99 74 80 96 100 100 100 100 31 76 100 24 3 26 5 5 2 7
26 28 98 39 2 27 0 19 37 92 100 70 4 0 0 0 5 5 2 5 51 60 100 99 58 76 56 100 100 100 100 100 100 32 2 100 14 0 6 2 15 5 5
4 7 100 37 100 99 3 9 89 3 35 100 7 0 0 0 0 0 19 86 0 32 100 100 100 100 100 98 51 78 83 100 61 5 100 100 35 6 5 2 6 5 8
33 5 95 94 71 51 69 83 89 69 31 10 84 60 0 0 0 0 0 0 0 0 0 37 2 57 100 98 5 5 4 1 5 42 62 42 15 6 5 5 7 75 100
4 6 98 100 59 11 82 100 64 100 66 2 5 56 11 0 0 0 0 0 0 0 0 3 4 5 5 3 4 0 0 5 0 0 5 3 4 5 5 5 5 15 5
9 4 14 100 95 5 76 98 80 97 33 49 4 2 8 5 0 0 0 0 0 0 0 0 0 2 4 5 5 3 2 0 4 2 5 69 70 5 4 34 54 36 6
0 12 96 100 94 96 30 73 85 100 85 44 0 2 5 3 0 0 0 0 0 0 5 2 0 2 5 5 5 1 1 2 5 47 99 75 21 26 5 76 100 100 99
0 0 19 67 90 100 84 100 100 100 99 36 6 2 18 4 0 0 0 1 3 2 5 5 5 5 75 100 90 98 60 91 98 98 54 15 8 7 12 100 76 13 38
5 2 1 49 100 100 46 92 89 100 100 94 41 15 84 99 96 39 5 5 5 8 5 5 5 5 6 26 38 57 26 55 100 42 71 32 46 8 70 61 100 100 100
5 5 11 5 98 100 60 16 53 100 100 100 100 100 100 100 10 73 30 8 5 90 100 100 60 35 15 56 58 69 100 100 100 100 100 100 92 100 100 99 100 98 100
5 0 5 86 100 66 11 38 86 36 98 100 100 100 100 100 100 100 72 8 5 14 6 59 100 100 100 96 98 100 100 100 99 98 100 100 26 65 60 100 100 80 33
4 1 33 81 46 70 27 48 92 98 100 100 100 100 100 100 100 100 100 100 23 33 24 60 40 98 78 26 8 6 24 84 88 19 28 19 14 60 63 58 99 52 87
97 100 100 98 84 89 98 29 95 99 100 100 100 100 100 100 100 100 100 100 100 92 99 99 76 92 81 48 48 82 100 100 97 100 62 86 97 100 97 39 78 100 67
97 100 100 100 100 100 86 24 100 100 100 100 100 100 100 100 100 100 100 100 100 100 100 100 94 75 100 100 100 100 100 100 100 100 100 100 100 100 100 100 100 100 100
100 100 87 64 92 88 100 67 97 100 100 100 100 100 100 100 100 100 100 100 100 100 100 100 100 99 100 100 100 100 100 100 100 100 100 100 100 100 100 100 100 100 100
100 100 87 100 97 98 100 100 100 100 100 100 100 100 100 100 100 100 100 100 100 100 100 100 100 100 100 100 100 100 100 100 100 100 100 100 100 100 100 100 100 99 100
100 100 100 100 100 100 100 100 100 100 100 100 100 100 100 100 100 100 100 100 100 100 100 100 100 100 100 100 100 100 100 100 100 100 100 100 100 100 92 99 100 95 87
100 84 100 100 100 100 100 100 100 100 100 100 100 100 100 100 100 100 100 100 100 100 100 100 100 100 100 100 100 100 100 100 100 100 100 99 100 100 94 95 92 97 98
63 98 100 100 100 100 100 100 100 100 100 100 100 100 100 100 100 100 100 100 100 100 100 100 100 98 100 100 100 100 100 100 100 100 100 100 100 100 100 100 100 100 100
97 100 98 100 100 100 100 100 100 100 100 100 100 100 100 100 100 100 100 100 100 100 100 100 100 100 100 100 100 100 100 100 100 100 100 100 100 100 100 100 100 100 97

GFSMW_prec_cloud_138.txt.gz
Cloud_Cover
100 58 6 2 5 62 88 100 5 0 0 1 4 4 100 100 100 91 81 92 5 11 5 0 0 5 30 5 4 100 91 78 100 100 91 79 76 83 21 61 75 51 67
94 100 23 11 0 3 95 100 6 0 0 0 5 4 96 100 98 20 6 39 5 4 0 0 1 5 51 5 0 74 95 63 79 5 77 100 82 77 76 41 95 80 69
86 100 100 36 67 0 8 96 83 0 0 5 5 5 28 100 32 5 5 5 3 0 0 0 0 5 46 2 30 48 49 18 5 80 80 81 26 10 63 69 24 31 87
98 70 99 78 7 3 4 70 100 0 0 0 2 49 5 98 22 5 1 0 0 0 0 0 0 5 5 4 5 7 6 32 5 11 30 90 87 5 44 18 37 14 74
100 88 99 29 5 11 0 39 100 20 0 0 0 5 70 54 5 5 0 0 0 0 0 0 0 3 2 1 5 18 100 5 5 5 5 36 8 5 5 5 5 27 72
100 99 96 100 100 79 11 3 48 100 0 0 0 1 5 6 0 0 3 0 0 0 0 0 5 5 2 0 3 6 5 8 5 5 8 7 5 5 5 5 5 54 81
58 100 100 99 100 40 79 0 4 98 53 0 0 4 5 2 4 0 0 0 0 0 0 5 22 2 0 0 3 4 32 28 5 32 40 5 5 5 5 5 10 5 5
6 64 100 100 100 78 58 4 0 5 100 0 0 0 0 0 0 0 0 0 0 0 0 0 0 0 0 2 5 13 26 28 23 48 6 5 5 5 5 5 5 5 5
0 4 14 94 71 100 100 100 8 0 51 94 0 0 0 0 0 0 0 0 2 3 0 0 0 4 5 0 46 5 5 36 49 57 1 29 1 5 5 5 5 5 5
0 0 1 5 41 97 98 86 97 19 4 84 15 3 1 0 0 2 0 0 0 0 0 0 0 0 4 7 5 5 5 5 4 61 0 5 3 2 0 5 5 5 5
0 0 0 0 8 98 29 96 100 100 31 10 62 36 4 0 0 0 0 0 0 0 0 0 0 0 3 97 34 5 5 0 3 8 1 48 10 5 5 4 4 5 12
0 0 0 0 3 37 100 96 92 100 87 100 98 78 31 0 0 0 4 0 0 0 0 4 0 1 5 6 5 13 6 5 4 0 6 68 8 6 5 5 5 5 6
0 0 0 0 0 14 100 65 100 100 82 18 100 100 85 34 0 0 0 0 0 0 0 5 6 4 0 4 7 28 13 2 0 0 1 7 11 3 5 5 5 5 35
0 5 5 5 2 0 95 96 100 100 100 5 94 100 55 6 9 2 0 0 0 0 0 0 0 1 0 0 0 0 0 0 4 5 3 5 52 100 49 70 13 5 13
0 0 5 5 5 2 0 4 59 75 99 17 89 100 100 100 5 0 0 0 0 0 0 0 0 0 0 2 4 16 86 6 9 98 73 100 100 63 67 90 84 87 73
0 6 39 36 100 83 58 22 9 100 97 82 10 6 100 99 98 6 0 0 0 0 0 0 0 0 0 10 4 5 13 5 5 16 100 100 47 100 52 41 100 100 100
0 20 91 97 85 47 100 100 100 57 93 87 84 86 84 99 98 100 100 1 0 0 0 0 0 0 6 7 0 21 77 100 18 12 52 98 90 100 100 100 100 100 100
0 0 15 46 69 100 100 83 16 88 12 100 73 100 100 78 56 100 100 78 5 0 0 0 0 18 56 60 50 100 100 100 79 92 87 97 100 100 100 100 100 100 100
0 4 32 64 100 97 100 100 14 20 37 97 94 38 98 100 100 100 100 94 96 86 98 64 89 92 83 73 58 99 99 100 95 100 100 100 100 100 100 100 100 100 100
42 23 44 98 90 96 91 100 100 100 99 100 100 55 99 100 100 78 100 100 100 100 100 100 100 100 100 100 100 100 100 100 100 100 100 100 100 100 100 100 100 100 100
100 100 100 100 100 100 100 98 96 95 85 100 100 100 77 100 100 100 100 100 100 100 100 100 100 100 100 100 100 100 100 100 100 100 100 100 100 100 100 100 100 100 100
100 100 100 100 100 95 95 100 100 76 71 100 100 100 100 100 100 100 100 100 100 100 100 100 100 100 100 100 100 100 100 100 100 100 100 100 100 100 100 100 100 100 100
100 100 100 100 100 100 100 100 99 36 49 100 100 100 100 100 100 100 100 100 100 100 100 100 100 100 100 100 100 100 100 100 100 100 100 100 100 100 100 100 100 100 100
100 100 100 100 100 100 100 96 49 23 23 81 100 100 100 100 100 100 100 100 100 100 100 100 100 100 100 100 100 100 100 100 100 100 100 100 100 100 100 100 100 100 100
100 100 93 100 100 100 100 74 90 24 86 80 100 100 100 100 100 100 100 100 100 100 100 100 100 100 100 100 100 100 100 100 100 100 100 100 100 100 100 100 100 100 100
96 100 100 100 100 100 100 100 100 90 75 100 100 100 100 100 100 100 100 100 100 100 100 100 100 100 100 100 100 100 100 100 100 100 100 100 100 100 100 100 100 100 100

GFSMW_prec_cloud_141.txt.gz
Cloud_Cover
21 61 100 70 79 4 6 100 2 0 3 0 5 5 5 32 50 88 90 54 5 4 4 0 0 5 2 5 5 30 55 44 7 5 68 5 8 5 20 64 5 5 5
76 11 99 100 100 21 6 89 34 0 0 0 4 2 1 4 40 89 40 82 5 5 4 0 0 5 0 3 94 99 9 5 23 5 5 5 5 5 8 18 5 5 7
98 70 69 42 100 65 61 17 96 0 0 0 5 5 57 4 3 8 5 5 5 4 0 0 0 0 0 3 100 9 5 5 48 12 5 5 5 5 5 12 5 5 5
97 92 5 17 100 92 24 76 98 30 0 0 4 4 5 53 5 6 85 5 5 4 0 0 0 0 5 6 77 5 5 0 4 5 5 5 5 2 5 5 13 26 70
75 97 63 54 100 100 60 76 83 100 1 0 0 0 5 29 5 0 1 5 5 0 0 0 0 0 2 5 57 5 3 5 3 5 5 5 5 3 5 6 5 5 47
100 100 100 93 94 100 100 31 100 100 65 0 0 0 1 4 5 19 48 5 3 0 0 0 0 0 0 14 5 5 5 5 5 2 5 5 5 3 2 5 5 5 5
100 100 100 100 100 100 100 100 64 100 100 0 0 0 0 0 0 5 3 4 0 0 0 0 0 0 5 20 2 5 5 5 5 5 5 5 5 5 1 0 4 1 0
5 69 100 34 100 28 98 100 92 98 100 28 0 0 0 5 0 0 0 0 0 0 0 0 0 0 5 5 3 6 7 53 60 6 5 3 1 4 0 0 1 0 0
0 2 92 100 9 45 83 48 98 3 93 100 2 1 0 1 0 0 0 0 0 0 0 0 0 0 0 0 0 3 54 94 7 27 4 5 0 2 0 4 5 5 0
0 0 0 8 57 13 42 10 88 14 2 85 79 30 70 1 0 0 0 0 0 0 0 0 0 0 0 0 0 2 5 5 5 3 4 0 3 0 3 1 5 4 5
0 0 0 0 0 2 9 100 100 71 23 82 75 17 56 82 13 0 0 0 0 0 0 0 0 0 0 5 4 5 5 5 0 2 39 0 2 5 1 5 5 5 6
5 0 0 0 3 0 1 100 100 100 100 100 3 28 2 3 37 0 0 0 0 0 0 0 0 0 0 0 5 5 5 3 5 5 5 0 5 5 5 12 24 5 8
0 0 0 0 0 0 0 0 100 100 98 96 100 100 5 10 0 0 0 0 0 0 0 0 0 0 0 6 5 84 5 5 9 5 1 4 7 14 67 22 40 73 34
0 0 0 0 0 0 0 0 9 100 100 100 100 92 5 30 11 0 0 0 0 0 0 0 0 0 3 5 2 3 5 5 5 1 5 5 11 26 74 85 86 51 11
0 0 0 1 9 0 4 5 7 57 100 100 100 94 6 49 83 33 3 0 0 0 0 0 0 3 5 5 0 0 0 6 2 0 46 99 100 100 100 100 100 75 37
0 0 6 89 100 100 100 70 54 42 92 100 99 15 88 99 93 37 58 20 0 0 0 0 0 0 2 15 2 4 6 5 3 24 74 34 92 100 100 52 9 30 28
0 0 33 89 46 100 100 98 86 50 87 80 99 88 65 100 100 66 72 49 23 0 6 6 0 0 0 23 30 15 46 92 63 46 47 86 5 7 73 49 10 98 100
0 3 35 40 52 68 49 98 59 46 43 51 48 90 100 90 56 68 100 98 71 41 11 1 20 0 1 27 11 26 0 50 91 98 98 56 14 11 62 96 100 100 100
0 11 24 47 73 79 100 100 99 56 55 59 100 100 76 100 59 35 40 100 100 94 55 5 29 1 55 97 51 29 84 100 91 59 100 97 95 100 100 99 91 100 100
7 23 24 47 97 79 100 100 100 100 100 91 68 76 100 100 100 84 32 66 100 100 80 41 41 88 86 100 98 74 100 99 83 49 100 99 100 100 100 92 100 100 100
33 36 53 87 100 100 100 100 87 56 89 100 100 100 100 100 100 90 96 100 99 100 100 100 100 100 99 100 100 100 100 100 100 100 99 100 100 100 100 100 100 100 100
34 54 53 96 100 100 100 100 34 99 100 68 100 100 100 100 100 100 100 100 100 100 100 100 100 100 100 100 100 100 100 100 100 100 100 100 100 100 100 100 100 100 100
41 40 88 100 100 100 84 87 50 61 38 71 99 100 100 100 100 100 100 100 100 100 100 100 100 100 100 100 100 100 100 100 100 100 100 100 100 100 100 100 100 100 100
100 100 100 100 100 100 100 76 81 49 51 100 77 97 100 100 100 100 100 100 100 100 100 100 100 100 100 100 100 100 100 100 100 100 100 100 100 100 100 100 100 100 100
100 100 100 100 94 100 100 100 100 62 58 100 99 100 100 100 100 100 100 100 100 100 100 100 100 100 100 100 100 100 100 100 100 100 100 100 100 100 100 100 100 100 100
100 100 100 100 100 100 100 100 94 24 50 96 100 91 100 100 100 100 100 100 100 100 100 100 100 100 100 100 100 100 100 100 100 100 100 100 100 100 100 100 100 100 100

GFSMW_prec_cloud_147.txt.gz
Cloud_Cover
55 95 87 92 100 99 4 9 2 16 12 48 42 27 98 71 68 82 100 100 76 26 100 71 5 0 59 51 0 5 26 92 81 75 99 59 25 30 5 91 82 28 6
76 77 45 94 98 100 69 21 16 1 1 40 37 22 5 14 21 40 18 56 4 5 33 20 13 10 76 0 0 5 20 5 69 36 7 90 100 99 97 0 4 5 18
34 56 64 35 35 100 100 58 10 33 0 22 12 4 2 48 7 100 76 53 5 2 2 31 2 62 0 8 0 0 2 22 63 5 5 41 100 95 100 80 4 5 18
97 100 90 36 16 100 100 100 58 84 2 0 36 14 8 28 97 100 100 94 5 44 44 6 3 0 1 13 0 0 2 5 5 35 4 5 29 5 5 72 89 44 38
100 100 100 25 100 99 100 100 97 25 7 0 0 4 99 5 100 86 84 96 73 4 1 27 38 5 0 23 0 0 0 0 4 9 55 8 5 9 5 9 81 60 48
100 100 100 100 99 100 100 100 100 100 36 2 0 5 19 73 100 97 100 38 26 6 5 26 5 4 2 13 2 4 0 5 2 8 10 13 45 58 33 80 12 5 46
100 100 100 100 100 100 100 100 91 100 100 5 0 2 6 19 5 90 99 100 70 48 92 5 47 13 0 47 19 18 3 2 3 9 5 67 32 52 60 26 1 8 11
100 100 100 100 100 100 100 100 100 100 100 84 2 0 5 5 5 59 17 11 87 37 99 88 3 2 72 30 100 80 5 11 3 5 5 5 28 36 64 41 84 45 51
100 97 100 100 100 100 100 100 100 100 100 100 5 0 0 5 31 100 100 5 95 58 7 96 95 25 38 0 64 100 27 10 55 40 8 10 5 4 7 68 90 98 15
49 15 17 82 100 100 100 100 100 100 100 100 65 2 0 0 0 6 5 10 79 74 92 71 27 20 1 25 7 100 66 15 52 82 92 50 5 4 12 65 72 31 66
0 0 3 0 3 0 2 83 100 100 100 100 100 55 0 0 5 2 5 4 0 6 4 1 11 15 18 6 2 94 46 54 70 87 68 52 2 5 4 14 76 100 3
0 0 0 0 1 1 0 14 89 100 100 100 100 100 32 7 22 1 0 1 4 0 0 0 0 0 0 13 0 3 10 20 45 10 10 24 5 28 63 5 1 1 2
0 0 0 0 0 2 1 3 16 90 100 100 100 100 100 7 5 3 11 64 5 0 4 0 0 0 0 0 0 0 5 5 67 88 9 5 12 5 30 7 94 100 28
0 0 0 0 0 0 0 0 3 12 78 100 100 100 100 100 91 5 18 23 4 0 0 0 0 0 0 5 5 20 2 1 28 15 17 17 5 5 6 30 100 100 70
0 0 0 0 0 0 4 1 2 10 35 27 100 100 100 92 100 99 14 5 2 0 0 0 0 0 4 7 4 0 43 79 30 62 32 5 10 76 41 52 100 100 100
0 0 0 0 0 0 2 0 0 4 27 52 97 75 95 99 6 72 100 70 17 0 0 0 0 0 0 0 3 18 40 5 46 5 20 97 88 19 14 5 74 100 100
0 0 0 0 0 0 0 3 2 14 23 78 88 52 91 100 100 98 100 100 34 5 5 2 0 0 0 0 0 0 5 6 28 5 4 20 49 34 26 8 7 38 52
30 1 0 0 2 0 0 0 15 38 32 45 45 53 42 26 93 100 100 100 100 68 39 5 5 4 0 0 0 0 0 0 0 86 1 5 39 9 100 98 97 91 86
8 0 0 0 5 7 13 0 7 34 10 30 38 31 28 19 20 66 99 100 55 93 100 100 87 8 3 4 4 0 0 0 0 0 6 11 37 26 74 20 36 100 37
0 0 0 0 0 22 8 4 11 6 53 75 20 11 16 12 16 39 45 99 73 8 34 93 100 100 100 90 81 75 19 12 0 25 81 55 90 0 2 32 58 98 68
0 0 0 0 0 20 32 63 21 83 44 45 53 47 74 63 63 95 100 100 65 94 14 28 38 31 100 100 99 60 100 88 6 76 100 91 11 0 0 5 84 100 100
0 0 0 47 5 76 100 100 100 100 70 100 82 92 100 97 86 99 98 100 100 99 46 100 99 100 100 100 100 100 97 100 100 84 100 93 39 10 5 86 100 100 100
0 33 84 77 84 100 100 100 100 52 50 32 26 52 48 70 99 100 100 100 100 100 60 62 100 100 100 100 100 100 100 100 100 98 88 100 91 98 99 98 100 100 100
76 2 68 100 100 100 94 66 39 24 28 99 35 46 47 95 91 100 100 100 100 100 100 100 100 100 100 100 100 100 100 100 100 100 97 100 100 100 100 100 100 100 100
78 100 100 100 100 96 78 100 6 29 23 40 36 10 58 100 100 100 100 100 100 100 100 100 100 100 100 100 100 100 100 100 100 100 100 100 100 100 100 100 100 100 100
92 86 89 99 99 74 43 62 76 21 96 75 7 4 35 99 75 100 100 100 100 100 100 100 100 100 100 100 100 100 100 100 100 100 100 100 100 100 100 100 100 100 100